Location: Garshuizen
(53.3675°N, 6.7248°E)
Time: 19:45:35
(UTC+00:00)

Cosmos 1898 Rocket - Pass Details

Date: 15 May 2026
Orbit: 750 x 778 km, 74.0° (Epoch: 6 June)

Event Time Altitude Azimuth Distance (km) Brightness Sun altitude
Rises 22:54:55 0° 330° (NNW) 3,217 8.0 -17.2°
Reaches altitude 10° 22:57:22 10° 324° (NW) 2,291 6.9 -17.3°
Maximum altitude 23:02:15 44° 254° (WSW) 1,048 4.1 -17.3°
Enters shadow 23:04:34 27° 200° (SSW) 1,423 4.4 -17.4°
